Dati Storici

Data ora Umidita' aria (%) Temperatura aria (°C) Rad globale (W/m²) Gonioanemometro (°) Tacoanemometro (m/s) Pioggia (mm)
05-11-2012 12:50 77.1 % 17.163 244.42 238.618 1.032 0
05-11-2012 12:40 75.6 % 16.797 493.486 218.145 2.757 0
05-11-2012 12:30 76.4 % 16.378 436.053 230.48 3.052 0
05-11-2012 12:20 78.4 % 16.619 253.526 258.196 2.626 0
05-11-2012 12:10 79.9 % 16.012 660.627 215.011 2.212 0
05-11-2012 12:00 81.5 % 15.539 208.582 196.625 1.998 0
05-11-2012 11:50 83 % 15.427 444.633 236.232 4.001 0
05-11-2012 11:40 83.2 % 14.92 232.77 219.099 2.92 0
05-11-2012 11:30 83.2 % 14.662 444.939 219.46 4.151 0
05-11-2012 11:20 84.1 % 14.279 465.918 189.229 2.622 0
05-11-2012 11:10 86.5 % 14.326 449.78 137.055 1.956 0
05-11-2012 11:00 89 % 13.793 148.32 157.424 1.83 0
05-11-2012 10:50 88.5 % 13.902 423.149 168.397 2.97 0
05-11-2012 10:40 91 % 13.663 439.157 221.93 2.468 0
05-11-2012 10:30 92.7 % 13.536 356.521 187.136 2.704 0
05-11-2012 10:20 95.4 % 13.146 172.856 216.683 2.775 0
05-11-2012 10:10 96.1 % 13.043 51.455 222.446 1.765 0
05-11-2012 10:00 96.3 % 13.197 38.622 193.462 2.195 0
05-11-2012 09:50 96.6 % 13.272 45.81 160.75 2.91 0
05-11-2012 09:40 96.8 % 13.385 47.168 178.779 1.553 0

I dati sono presentati in modo automatico a scopo informativo. In seguito a verifica i dati possono subire modifiche o essere invalidati e non riportati negli archivi definitivi.